EW9826 Weather Reports


time (UTC)temp
C
wind
direction
speed
KPH
gust
KPH
rain 1hr
cm
rain 24hr
cm
rain mn
cm
humidity
%
barometer
mb
20260508182505 16 340 1.6 4.8 0.00 0.00 0.00 60 1017.9
20260508182006 16 340 3.2 8.0 0.00 0.00 0.00 60 1017.9
20260508181505 16 340 4.8 9.7 0.00 0.00 0.00 59 1017.9
20260508181006 16 340 6.4 9.7 0.00 0.00 0.00 59 1017.9
20260508174006 16 335 3.2 8.0 0.00 0.00 0.00 59 1017.8
20260508173508 16 334 4.8 11.3 0.00 0.00 0.00 59 1017.7
20260508173006 16 334 4.8 8.0 0.00 0.00 0.00 60 1017.7
20260508172006 16 334 4.8 8.0 0.00 0.00 0.00 59 1017.7
20260508171505 16 335 4.8 8.0 0.00 0.00 0.00 59 1017.6
20260508171006 16 338 3.2 11.3 0.00 0.00 0.00 59 1017.6
20260508164505 16 3 1.6 4.8 0.00 0.00 0.00 51 1017.4
20260508164005 16 3 8.0 11.3 0.00 0.00 0.00 50 1017.4
20260508163505 16 327 4.8 9.7 0.00 0.00 0.00 52 1017.3
20260508163006 16 33 4.8 9.7 0.00 0.00 0.00 51 1017.3
20260508162506 17 33 3.2 8.0 0.00 0.00 0.00 52 1017.3
20260508162006 17 35 3.2 8.0 0.00 0.00 0.00 51 1017.3
20260508160006 17 326 4.8 9.7 0.00 0.00 0.00 47 1017.3
20260508155505 18 302 3.2 9.7 0.00 0.00 0.00 46 1017.3
20260508153506 17 0 3.2 8.0 0.00 0.00 0.00 47 1017.3
20260508152005 17 56 3.2 8.0 0.00 0.00 0.00 46 1017.4
20260508143005 17 0 8.0 11.3 0.00 0.00 0.00 52 1017.5
20260508142505 17 4 6.4 12.9 0.00 0.00 0.00 53 1017.6
20260508142005 17 3 3.2 11.3 0.00 0.00 0.00 53 1017.6
20260508141505 17 84 0.0 4.8 0.00 0.00 0.00 49 1017.7
20260508141006 17 84 1.6 4.8 0.00 0.00 0.00 52 1017.7
20260508132005 16 142 4.8 9.7 0.00 0.00 0.00 57 1017.9
20260508131505 16 144 1.6 8.0 0.00 0.00 0.00 56 1017.9
20260508124005 16 11 1.6 9.7 0.00 0.00 0.00 57 1017.9
20260508123504 16 355 3.2 11.3 0.00 0.00 0.00 56 1017.9
20260508123005 17 53 4.8 8.0 0.00 0.00 0.00 57 1017.9
20260508122505 17 10 1.6 4.8 0.00 0.00 0.00 57 1017.9
20260508122005 17 10 1.6 14.5 0.00 0.00 0.00 57 1017.9
20260508115005 16 105 3.2 12.9 0.00 0.00 0.00 58 1017.9
20260508114504 17 327 4.8 9.7 0.00 0.00 0.00 57 1017.9
20260508114005 16 121 3.2 12.9 0.00 0.00 0.00 60 1017.9
20260508113504 16 127 4.8 16.1 0.00 0.00 0.00 59 1017.9
20260508113005 16 94 3.2 11.3 0.00 0.00 0.00 61 1017.9
20260508112505 16 93 4.8 12.9 0.00 0.00 0.00 60 1018.0
20260508112004 16 92 4.8 14.5 0.00 0.00 0.00 61 1017.9
20260508111505 16 117 3.2 11.3 0.00 0.00 0.00 62 1018.0
20260508111005 16 155 4.8 12.9 0.00 0.00 0.00 62 1018.1
20260508110005 16 106 3.2 8.0 0.00 0.00 0.00 63 1018.2
20260508105505 15 105 3.2 11.3 0.00 0.00 0.00 63 1018.2
20260508095005 14 96 4.8 14.5 0.00 0.00 0.00 69 1018.4
20260508094504 13 96 3.2 14.5 0.00 0.00 0.00 69 1018.4
20260508090004 13 98 6.4 12.9 0.00 0.00 0.00 73 1018.4
20260508085504 12 53 3.2 14.5 0.00 0.00 0.00 74 1018.4
20260508085005 12 116 4.8 12.9 0.00 0.00 0.00 75 1018.4
20260508084504 12 133 3.2 11.3 0.00 0.00 0.00 77 1018.4
20260508084009 12 89 6.4 12.9 0.00 0.00 0.00 77 1018.4
20260508083508 12 111 4.8 12.9 0.00 0.00 0.00 78 1018.4
20260508083008 12 115 9.7 16.1 0.00 0.00 0.00 78 1018.4
20260508082508 11 117 8.0 14.5 0.00 0.00 0.00 79 1018.4
20260508082009 11 100 9.7 16.1 0.00 0.00 0.00 79 1018.4
20260508081508 11 103 8.0 16.1 0.00 0.00 0.00 79 1018.4
20260508081009 11 109 8.0 16.1 0.00 0.00 0.00 80 1018.4
20260508074508 11 100 6.4 12.9 0.00 0.00 0.00 81 1018.4
20260508074009 11 99 4.8 14.5 0.00 0.00 0.00 82 1018.4
20260508073508 11 98 8.0 14.5 0.00 0.00 0.00 82 1018.4
20260508073009 11 98 6.4 11.3 0.00 0.00 0.00 82 1018.4
20260508064509 10 96 6.4 14.5 0.00 0.00 0.00 84 1018.0
20260508061508 10 95 4.8 9.7 0.00 0.00 0.00 84 1017.9
20260508061008 10 96 6.4 14.5 0.00 0.00 0.00 84 1017.9
20260508060008 10 95 4.8 11.3 0.00 0.00 0.00 84 1017.9
20260508055509 10 95 3.2 8.0 0.00 0.00 0.00 85 1017.9
20260508055008 10 95 4.8 8.0 0.00 0.00 0.00 85 1017.9
20260508052008 10 94 4.8 9.7 0.00 0.00 0.00 85 1017.7
20260508051508 10 94 4.8 11.3 0.00 0.00 0.00 85 1017.6
20260508051009 10 94 6.4 11.3 0.00 0.00 0.00 85 1017.5
20260508050008 10 9 3.2 8.0 0.00 0.00 0.00 85 1017.5
20260508045507 10 8 4.8 8.0 0.00 0.00 0.00 85 1017.4
20260508045008 10 3 4.8 4.8 0.00 0.00 0.00 85 1017.3
20260508044508 10 4 4.8 8.0 0.00 0.00 0.00 85 1017.3
20260508044007 10 0 3.2 4.8 0.00 0.00 0.00 85 1017.3
20260508043507 10 0 4.8 8.0 0.00 0.00 0.00 85 1017.3
20260508043008 10 355 3.2 8.0 0.00 0.00 0.00 85 1017.3
20260508042008 10 355 4.8 8.0 0.00 0.00 0.00 85 1017.3
20260508035507 10 90 9.7 14.5 0.00 0.00 0.00 84 1017.3
20260508035008 10 83 4.8 12.9 0.00 0.00 0.00 83 1017.3
20260508033508 10 80 4.8 11.3 0.00 0.00 0.00 83 1017.3
20260508031508 10 80 3.2 9.7 0.00 0.00 0.00 83 1017.2
20260508031007 10 80 4.8 12.9 0.00 0.00 0.00 82 1017.2
20260508030007 10 76 3.2 8.0 0.00 0.00 0.00 82 1017.1
20260508022507 11 71 3.2 4.8 0.00 0.00 0.00 82 1017.1
20260508022007 11 71 3.2 8.0 0.00 0.00 0.00 82 1017.1
20260508021507 11 70 4.8 11.3 0.00 0.00 0.00 82 1017.1
20260508021007 11 69 3.2 8.0 0.00 0.00 0.00 82 1017.1
20260508020007 11 69 0.0 4.8 0.00 0.00 0.00 81 1017.1
20260508015507 11 69 1.6 4.8 0.00 0.00 0.00 81 1017.0
20260508015007 11 69 1.6 8.0 0.00 0.00 0.00 81 1016.9
20260508014507 11 69 4.8 8.0 0.00 0.00 0.00 81 1016.9
20260508013508 11 68 3.2 8.0 0.00 0.00 0.00 81 1017.0
20260508011507 11 67 3.2 4.8 0.00 0.00 0.00 80 1017.0
20260508011007 11 67 1.6 4.8 0.00 0.00 0.00 79 1017.1
20260508005007 11 67 4.8 8.0 0.00 0.00 0.00 79 1017.1
20260508004507 11 67 3.2 4.8 0.00 0.00 0.00 78 1017.2
20260508003007 11 62 4.8 8.0 0.00 0.00 0.00 78 1017.2
20260508002507 11 59 3.2 4.8 0.00 0.00 0.00 78 1017.2
20260508002007 11 59 0.0 4.8 0.00 0.00 0.00 78 1017.2
20260507233507 11 59 0.0 1.6 0.00 0.00 0.00 78 1017.3
20260507233007 11 59 0.0 3.2 0.00 0.00 0.00 78 1017.3
20260507231007 11 59 0.0 1.6 0.00 0.00 0.00 77 1017.3
20260507230006 11 59 0.0 1.6 0.00 0.00 0.00 77 1017.3
20260507225506 11 59 0.0 3.2 0.00 0.00 0.00 77 1017.3
20260507225007 11 59 0.0 3.2 0.00 0.00 0.00 76 1017.3
20260507224507 11 59 1.6 3.2 0.00 0.00 0.00 76 1017.3
20260507224007 11 59 0.0 1.6 0.00 0.00 0.00 76 1017.3
20260507223506 11 59 0.0 1.6 0.00 0.00 0.00 76 1017.3
20260507223008 11 59 0.0 1.6 0.00 0.00 0.00 76 1017.3
20260507222507 11 59 0.0 0.0 0.00 0.00 0.00 76 1017.3
20260507222006 11 59 0.0 1.6 0.00 0.00 0.00 76 1017.3
20260507221506 11 59 0.0 1.6 0.00 0.00 0.00 75 1017.3
20260507215506 12 59 0.0 0.0 0.00 0.00 0.00 74 1017.3
20260507215006 12 59 0.0 3.2 0.00 0.00 0.00 74 1017.3
20260507211506 12 59 1.6 4.8 0.00 0.00 0.00 71 1017.3
20260507211007 12 59 0.0 1.6 0.00 0.00 0.00 70 1017.3
20260507204506 12 59 0.0 4.8 0.00 0.00 0.00 67 1017.1
20260507204006 12 59 1.6 4.8 0.00 0.00 0.00 67 1017.0
20260507203506 12 59 1.6 4.8 0.00 0.00 0.00 66 1016.9
20260507203006 13 59 0.0 4.8 0.00 0.00 0.00 65 1016.9
20260507202506 13 59 3.2 8.0 0.00 0.00 0.00 64 1016.9
20260507202007 13 58 1.6 4.8 0.00 0.00 0.00 63 1016.9
20260507200006 13 58 1.6 4.8 0.00 0.00 0.00 59 1016.8
20260507195007 13 58 1.6 4.8 0.00 0.00 0.00 57 1016.7
20260507194507 13 58 1.6 3.2 0.00 0.00 0.00 57 1016.6
20260507193006 13 58 1.6 4.8 0.00 0.00 0.00 55 1016.4
20260507192505 13 58 1.6 4.8 0.00 0.00 0.00 55 1016.4
20260507192007 13 58 1.6 8.0 0.00 0.00 0.00 55 1016.3
20260507191506 13 58 3.2 4.8 0.00 0.00 0.00 55 1016.4
20260507191007 14 58 1.6 4.8 0.00 0.00 0.00 55 1016.4
20260507185506 14 58 1.6 4.8 0.00 0.00 0.00 55 1016.3
20260507185006 14 57 1.6 4.8 0.00 0.00 0.00 56 1016.4
20260507184506 15 57 0.0 4.8 0.00 0.00 0.00 55 1016.3